Погода в Ускуч

Россия / Республика Алтай     52°02′08″N   86°54′31″E
темп.,
°C
ветер,
м/с
пор.,
м/с
влажн.,
%
обл.,
%
осадки,
мм/ч
давл.,
гПа
погр.,
м
24 сентября, пт
пт2401:00+2ююз1199100 1.0 1023282
04:00+2з0099100 0.1 1023296
07:00+2зсз0199100 0.2 1024269
10:00+3зюз119397 0.1 1024308
13:00+5зсз138094 0.3 1025791
16:00+4зсз248670 0.4 1026672
19:00+3з128658 0.6 102839
22:00+2зюз1388100 0.1 1030237
25 сентября, сб
сб2501:00+2з1280100 0.1 103044
04:00+1ю1190100 0.1 103080
07:00−1ююз1195100 0.1 103015
10:00+3ююз1271100 0.0 1029355
13:00+8з244798 0.0 10271643
16:00+8зсз3347100 0.0 10251434
19:00+4зюз0065100 0.0 102410
22:00+3ю2271100 0.0 102426
26 сентября, вс
вс2601:00+2ююв1176100 0.0 102132
04:00+2св1176100 0.0 101912
07:00+2ю0078100 0.0 101813
10:00+5сз1270100 0.1 1017491
13:00+1зсз3998100 1.1 1019473
16:00+1з378899 1.2 1022761
19:00−1зсз269470 1.8 1024251
22:00−4ююз229750 0.1 102524
27 сентября, пн
пн2701:00−5ююз219811 0.1 102520
04:00−5ю119745 0.0 102612
07:00−6ююв119667 0.0 102615
10:00−1вюв117660 0.0 1026418
13:00+4св115282 0.0 10241328
16:00+5св324483 0.0 10231654
19:00−1св2574100 0.0 102485
22:00−3в1190100 0.0 102411
28 сентября, вт
вт2801:00−3вюв1189100 0.0 102311
04:00−4вюв1187100 0.0 102215
07:00−4в1189100 0.0 102210
10:00+2в125580 0.0 1021331
13:00+7всв223981 0.0 1019746
16:00+9св22415 0.0 1018874
19:00+2св22724 0.0 101810
22:000вюв11895 0.0 101610